HAL219 KBOS-KCVG

Flight info

Callsign HAL219
Flight time N/A
Altitude 40000
Route REVSS6 REVSS CTR HNK J49 PSB MAULL KODIE CTW SAVVI TIGRR4
Aircraft A333/H-SDE3GHIJ2J3J5M1RVWXY/LB2D1

Departure

Time 2026-05-07 23:22
Airport Boston Logan International Airport (KBOS)

Arrival

Time N/A
Airport Cincinnati Northern Kentucky International Airport (KCVG)
Time Latitude Longitude Altitude Speed Heading
2026-05-07 22:58 42.37269 -71.02647 29 ft 0 kts 220°
2026-05-07 23:07 42.37279 -71.02636 24 ft 3 kts 220°
2026-05-07 23:07 42.37294 -71.02619 31 ft 3 kts 193°
2026-05-07 23:08 42.37313 -71.02618 32 ft 3 kts 176°
2026-05-07 23:08 42.37331 -71.02619 26 ft 3 kts 167°
2026-05-07 23:08 42.37348 -71.02630 27 ft 0 kts 134°
2026-05-07 23:11 42.37344 -71.02626 27 ft 3 kts 134°
2026-05-07 23:11 42.37315 -71.02583 26 ft 9 kts 132°
2026-05-07 23:11 42.37262 -71.02519 27 ft 11 kts 140°
2026-05-07 23:11 42.37205 -71.02438 27 ft 12 kts 131°
2026-05-07 23:12 42.37153 -71.02341 27 ft 13 kts 121°
2026-05-07 23:12 42.37137 -71.02227 27 ft 12 kts 66°
2026-05-07 23:12 42.37191 -71.02139 28 ft 12 kts 53°
2026-05-07 23:12 42.37221 -71.02041 31 ft 10 kts 77°
2026-05-07 23:13 42.37243 -71.01956 33 ft 9 kts 62°
2026-05-07 23:13 42.37283 -71.01885 33 ft 10 kts 62°
2026-05-07 23:13 42.37275 -71.01797 33 ft 10 kts 121°
2026-05-07 23:13 42.37223 -71.01719 32 ft 12 kts 136°
2026-05-07 23:14 42.37160 -71.01640 33 ft 12 kts 137°
2026-05-07 23:14 42.37098 -71.01556 33 ft 14 kts 134°
2026-05-07 23:14 42.37023 -71.01454 30 ft 17 kts 134°
2026-05-07 23:14 42.36940 -71.01339 30 ft 18 kts 134°
2026-05-07 23:15 42.36848 -71.01215 28 ft 20 kts 135°
2026-05-07 23:15 42.36743 -71.01145 31 ft 14 kts 184°
2026-05-07 23:15 42.36659 -71.01176 32 ft 13 kts 199°
2026-05-07 23:15 42.36570 -71.01216 30 ft 15 kts 199°
2026-05-07 23:16 42.36461 -71.01268 28 ft 17 kts 200°
2026-05-07 23:16 42.36360 -71.01304 29 ft 11 kts 167°
2026-05-07 23:16 42.36304 -71.01239 31 ft 10 kts 130°
2026-05-07 23:16 42.36265 -71.01154 31 ft 11 kts 117°
2026-05-07 23:17 42.36228 -71.01046 30 ft 14 kts 114°
2026-05-07 23:17 42.36187 -71.00924 30 ft 15 kts 114°
2026-05-07 23:17 42.36142 -71.00788 27 ft 18 kts 114°
2026-05-07 23:17 42.36097 -71.00620 27 ft 19 kts 109°
2026-05-07 23:18 42.36056 -71.00459 29 ft 18 kts 109°
2026-05-07 23:18 42.36015 -71.00295 30 ft 18 kts 109°
2026-05-07 23:18 42.35973 -71.00137 33 ft 18 kts 113°
2026-05-07 23:18 42.35899 -71.00000 33 ft 19 kts 135°
2026-05-07 23:19 42.35809 -70.99879 35 ft 18 kts 135°
2026-05-07 23:19 42.35712 -70.99749 31 ft 21 kts 135°
2026-05-07 23:19 42.35608 -70.99610 31 ft 18 kts 135°
2026-05-07 23:19 42.35511 -70.99480 28 ft 21 kts 135°
2026-05-07 23:20 42.35485 -70.99421 30 ft 4 kts 95°
2026-05-07 23:20 42.35495 -70.99346 30 ft 12 kts 76°
2026-05-07 23:20 42.35549 -70.99296 31 ft 8 kts 347°
2026-05-07 23:20 42.35601 -70.99343 29 ft 10 kts 315°
2026-05-07 23:21 42.35670 -70.99437 30 ft 28 kts 315°
2026-05-07 23:21 42.35951 -70.99813 35 ft 85 kts 315°
2026-05-07 23:21 42.36496 -71.00541 34 ft 133 kts 316°
2026-05-07 23:21 42.37237 -71.01534 214 ft 159 kts 311°
2026-05-07 23:22 42.37970 -71.02677 796 ft 163 kts 307°
2026-05-07 23:22 42.38662 -71.03900 1440 ft 166 kts 308°
2026-05-07 23:22 42.39395 -71.05194 1803 ft 182 kts 306°
2026-05-07 23:22 42.40132 -71.06702 2146 ft 204 kts 301°
2026-05-07 23:23 42.40771 -71.08531 2375 ft 231 kts 288°
2026-05-07 23:23 42.41047 -71.10740 2944 ft 243 kts 275°
2026-05-07 23:23 42.41030 -71.13035 3775 ft 246 kts 268°
2026-05-07 23:23 42.40899 -71.15358 4649 ft 248 kts 266°
2026-05-07 23:24 42.40743 -71.17709 5467 ft 252 kts 266°
2026-05-07 23:24 42.40579 -71.20089 6342 ft 255 kts 266°
2026-05-07 23:24 42.40413 -71.22486 7215 ft 257 kts 266°
2026-05-07 23:24 42.40245 -71.24894 8207 ft 255 kts 266°
2026-05-07 23:25 42.40080 -71.27271 9209 ft 253 kts 266°
2026-05-07 23:25 42.39917 -71.29613 10106 ft 254 kts 265°
2026-05-07 23:25 42.39746 -71.32087 10630 ft 269 kts 265°
2026-05-07 23:25 42.39542 -71.34690 10972 ft 288 kts 263°
2026-05-07 23:26 42.39283 -71.37426 11306 ft 306 kts 263°
2026-05-07 23:26 42.39059 -71.40344 11821 ft 315 kts 264°
2026-05-07 23:26 42.38868 -71.43324 12565 ft 318 kts 264°
2026-05-07 23:26 42.38689 -71.46297 13392 ft 318 kts 264°
2026-05-07 23:27 42.38321 -71.52283 14775 ft 321 kts 263°
2026-05-07 23:27 42.38125 -71.55294 15426 ft 323 kts 262°
2026-05-07 23:27 42.37922 -71.58334 16094 ft 325 kts 262°
2026-05-07 23:28 42.37715 -71.61382 16744 ft 327 kts 261°
2026-05-07 23:28 42.37506 -71.64423 17390 ft 328 kts 261°
2026-05-07 23:28 42.37290 -71.67544 18035 ft 330 kts 261°
2026-05-07 23:28 42.37074 -71.70651 18582 ft 333 kts 261°
2026-05-07 23:29 42.36859 -71.73739 19102 ft 335 kts 261°
2026-05-07 23:29 42.36640 -71.76885 19610 ft 337 kts 261°
2026-05-07 23:29 42.36418 -71.80055 20106 ft 339 kts 261°
2026-05-07 23:29 42.36195 -71.83227 20612 ft 340 kts 261°
2026-05-07 23:30 42.35971 -71.86418 21120 ft 342 kts 261°
2026-05-07 23:30 42.35744 -71.89636 21631 ft 344 kts 261°
2026-05-07 23:30 42.35515 -71.92861 22105 ft 347 kts 261°
2026-05-07 23:30 42.35283 -71.96118 22528 ft 350 kts 261°
2026-05-07 23:31 42.35045 -71.99431 23007 ft 352 kts 261°
2026-05-07 23:31 42.34811 -72.02685 23455 ft 355 kts 261°
2026-05-07 23:31 42.34571 -72.06012 23813 ft 357 kts 261°
2026-05-07 23:31 42.34327 -72.09381 24186 ft 359 kts 261°
2026-05-07 23:32 42.34081 -72.12759 24547 ft 362 kts 261°
2026-05-07 23:32 42.33834 -72.16141 24920 ft 364 kts 261°
2026-05-07 23:32 42.33584 -72.19559 25278 ft 366 kts 261°
2026-05-07 23:32 42.33330 -72.22995 25633 ft 368 kts 261°
2026-05-07 23:33 42.33075 -72.26450 26018 ft 370 kts 261°
2026-05-07 23:33 42.32817 -72.29922 26357 ft 372 kts 261°
2026-05-07 23:33 42.32556 -72.33415 26696 ft 374 kts 261°
2026-05-07 23:33 42.32295 -72.36916 27045 ft 376 kts 261°
2026-05-07 23:34 42.32028 -72.40463 27358 ft 379 kts 261°
2026-05-07 23:34 42.31761 -72.44008 27725 ft 380 kts 261°
2026-05-07 23:34 42.31490 -72.47578 28055 ft 382 kts 261°
2026-05-07 23:34 42.31219 -72.51142 28357 ft 384 kts 261°
2026-05-07 23:35 42.30942 -72.54753 28652 ft 386 kts 261°
2026-05-07 23:35 42.30665 -72.58364 28952 ft 388 kts 261°
2026-05-07 23:35 42.30385 -72.61997 29369 ft 388 kts 261°
2026-05-07 23:35 42.30105 -72.65619 29740 ft 388 kts 261°
2026-05-07 23:36 42.29823 -72.69252 30018 ft 390 kts 261°
2026-05-07 23:36 42.29538 -72.72903 30235 ft 392 kts 261°
2026-05-07 23:36 42.29253 -72.76525 30475 ft 393 kts 261°
2026-05-07 23:36 42.28959 -72.80260 30726 ft 395 kts 261°
2026-05-07 23:37 42.28672 -72.83897 31076 ft 394 kts 261°
2026-05-07 23:37 42.28381 -72.87572 31468 ft 392 kts 261°
2026-05-07 23:37 42.28091 -72.91219 31822 ft 391 kts 261°
2026-05-07 23:37 42.27798 -72.94885 32176 ft 390 kts 261°
2026-05-07 23:38 42.27505 -72.98525 32680 ft 387 kts 261°
2026-05-07 23:38 42.27220 -73.02062 33119 ft 384 kts 261°
2026-05-07 23:38 42.26930 -73.05653 33413 ft 384 kts 261°
2026-05-07 23:38 42.26639 -73.09231 33700 ft 384 kts 261°
2026-05-07 23:39 42.26345 -73.12821 33979 ft 384 kts 261°
2026-05-07 23:39 42.26052 -73.16392 34194 ft 384 kts 261°
2026-05-07 23:39 42.25757 -73.19977 34419 ft 384 kts 261°
2026-05-07 23:39 42.25460 -73.23566 34646 ft 384 kts 261°
2026-05-07 23:40 42.25167 -73.27108 34885 ft 384 kts 261°
2026-05-07 23:40 42.24867 -73.30700 35130 ft 384 kts 261°
2026-05-07 23:40 42.24569 -73.34276 35382 ft 383 kts 261°
2026-05-07 23:40 42.24287 -73.37632 35582 ft 384 kts 261°
2026-05-07 23:41 42.23986 -73.41216 35766 ft 384 kts 261°
2026-05-07 23:41 42.23681 -73.44827 35833 ft 387 kts 261°
2026-05-07 23:41 42.23068 -73.52032 35807 ft 386 kts 261°
2026-05-07 23:42 42.22460 -73.59150 35843 ft 384 kts 261°
2026-05-07 23:42 42.21842 -73.66307 35879 ft 383 kts 261°
2026-05-07 23:43 42.21224 -73.73429 35852 ft 382 kts 261°
2026-05-07 23:43 42.20600 -73.80552 35865 ft 382 kts 261°
2026-05-07 23:44 42.19975 -73.87639 35861 ft 381 kts 261°
2026-05-07 23:44 42.19343 -73.94753 36155 ft 382 kts 261°
2026-05-07 23:45 42.19026 -73.98303 36365 ft 382 kts 261°
2026-05-07 23:45 42.18707 -74.01869 36599 ft 382 kts 261°
2026-05-07 23:45 42.18387 -74.05429 36778 ft 382 kts 261°
2026-05-07 23:45 42.18066 -74.08985 36938 ft 382 kts 261°
2026-05-07 23:46 42.17748 -74.12507 37115 ft 383 kts 261°
2026-05-07 23:46 42.17425 -74.16069 37313 ft 383 kts 261°
2026-05-07 23:46 42.17100 -74.19624 37521 ft 382 kts 261°
2026-05-07 23:46 42.16773 -74.23178 37648 ft 382 kts 261°
2026-05-07 23:47 42.16444 -74.26740 37774 ft 383 kts 261°
2026-05-07 23:47 42.16115 -74.30305 37953 ft 383 kts 261°
2026-05-07 23:47 42.15787 -74.33877 38113 ft 384 kts 261°
2026-05-07 23:47 42.15456 -74.37456 38283 ft 385 kts 261°
2026-05-07 23:48 42.15125 -74.41032 38412 ft 386 kts 261°
2026-05-07 23:48 42.14791 -74.44624 38634 ft 384 kts 261°
2026-05-07 23:48 42.14457 -74.48200 38775 ft 384 kts 261°
2026-05-07 23:48 42.14123 -74.51772 38891 ft 384 kts 261°